Simultaneous Nadir Overpasses (SNOs) Predictions

Prediction of SNOs between AQUA and METOP-A Satellite Orbit:

Table of predicted SNOs for the next 14.0 days since TLE Epoch: 12/7/2018
Index Date (AQUA) Time (AQUA) Lat,Lon (AQUA) SZA (AQUA ) Date (METOP-A) Time (METOP-A) Lat,Lon (METOP-A) SZA (METOP-A ) Distance(km) Time Diff (sec)
1 12/09/2018 20:09:08 -74.67, 50.01 82.48 12/09/2018 20:07:56 -74.68, 49.99 82.46 1.13 72
2 12/09/2018 20:58:37 74.76,-142.57 97.62 12/09/2018 20:58:34 74.75,-142.48 97.62 2.64 3
3 12/09/2018 21:48:04 -74.82, 24.91 82.31 12/09/2018 21:49:15 -74.80, 24.97 82.34 2.99 71
4 12/12/2018 15:43:23 -74.68, 116.42 82.22 12/12/2018 15:42:11 -74.69, 116.43 82.21 0.99 72
5 12/12/2018 16:32:52 74.77, -76.15 97.87 12/12/2018 16:32:49 74.76, -76.05 97.86 3.02 3
6 12/12/2018 17:22:18 -74.78, 91.45 82.11 12/12/2018 17:23:30 -74.81, 91.41 82.09 3.28 72
7 12/15/2018 11:17:37 -74.70,-177.18 82.02 12/15/2018 11:16:25 -74.70,-177.14 82.02 1.34 72
8 12/15/2018 12:07:05 74.73, -9.62 98.02 12/15/2018 12:07:03 74.77, -9.63 98.05 3.58 2
9 12/15/2018 12:56:32 -74.80, 157.85 81.91 12/15/2018 12:57:44 -74.82, 157.83 81.90 1.88 72
10 12/18/2018 06:51:52 -74.73,-110.80 81.88 12/18/2018 06:50:40 -74.71,-110.72 81.89 3.43 72
11 12/18/2018 07:41:20 74.76, 56.76 98.16 12/18/2018 07:41:18 74.77, 56.78 98.17 1.42 2
12 12/18/2018 08:30:47 -74.83,-135.77 81.77 12/18/2018 08:31:59 -74.82,-135.74 81.78 0.97 72
13 12/21/2018 02:26:06 -74.71, -44.31 81.84 12/21/2018 02:24:55 -74.71, -44.30 81.82 0.43 71
14 12/21/2018 03:15:35 74.79, 123.13 98.25 12/21/2018 03:15:33 74.77, 123.19 98.23 2.76 2




NCC Satellite Simultaneous Nadir Overpasses (SNOs) Prediction Service
